User: anonymous   Login
Location: Carri�res
(48.9069°N, 2.1792°E)
Time: 15:30:28
(UTC+00:00)
Language:

deb Kosmos- 1898 - Orbit

View from above orbital plane
View from above orbital plane
View from above satellite
View from above satellite

Ground track
Ground track

The orbit data is extracted from the following two-line orbital elements,

1 18698U 87098D   21214.61082916  .00000155  00000-0  52405-4 0  9998
2 18698  73.9895 324.4740 0016081 297.3227  73.3754 14.44730723765256
Epoch (UTC): 02 August 2021 14:39:35
Eccentricity: 0.0016081
inclination: 73.9895°
perigee height: 731 km
apogee height: 754 km
right ascension of ascending node: 324.4740°
argument of perigee: 297.3227°
revolutions per day: 14.44730723
mean anomaly at epoch: 73.3754°
orbit number at epoch: 76525

The dashed part of the orbit path shows where the satellite is in the earth's shadow,  

DLR